QPF
0.00 0.00 0.00 0.00 0.00 0.00 0.00 0.00 0.00 0.00 0.00 0.00 0.00 0.00 0.00 0.00 0.00 0.00 0.00 0.00 0.00 0.00 0.00 0.00 0.00 0.00 0.00 0.00 0.00 0.00 0.00 0.00 0.00 0.00 0.00 0.00 0.00 0.00 0.00 0.00 0.00 0.00 0.00 0.00 0.00
0.00 0.00 0.00 0.00 0.00 0.00 0.00 0.00 0.00 0.00 0.00 0.00 0.00 0.00 0.00 0.00 0.00 0.00 0.00 0.00 0.00 0.00 0.00 0.00 0.00 0.00 0.00 0.00 0.00 0.00 0.00 0.00 0.00 0.00 0.00 0.00 0.00 0.00 0.00 0.00 0.00 0.00 0.00 0.00 0.00
0.00 0.00 0.00 0.00 0.00 0.00 0.00 0.00 0.00 0.00 0.00 0.00 0.00 0.00 0.00 0.00 0.00 0.00 0.00 0.00 0.00 0.00 0.00 0.00 0.00 0.00 0.00 0.00 0.00 0.00 0.00 0.00 0.00 0.00 0.00 0.00 0.00 0.00 0.00 0.00 0.00 0.00 0.00 0.00 0.00
0.00 0.00 0.00 0.00 0.00 0.00 0.00 0.00 0.00 0.00 0.00 0.00 0.00 0.00 0.00 0.00 0.00 0.00 0.00 0.00 0.00 0.00 0.00 0.00 0.00 0.00 0.00 0.00 0.00 0.00 0.00 0.00 0.00 0.00 0.00 0.00 0.00 0.00 0.00 0.00 0.00 0.00 0.00 0.00 0.00
0.00 0.00 0.00 0.00 0.00 0.00 0.00 0.00 0.00 0.00 0.00 0.00 0.00 0.00 0.00 0.00 0.00 0.00 0.00 0.00 0.00 0.00 0.00 0.00 0.00 0.00 0.00 0.00 0.00 0.00 0.00 0.00 0.00 0.00 0.00 0.00 0.00 0.00 0.00 0.00 0.00 0.00 0.00 0.00 0.00
0.00 0.00 0.00 0.00 0.00 0.00 0.00 0.00 0.00 0.00 0.00 0.00 0.00 0.00 0.00 0.00 0.00 0.00 0.00 0.00 0.00 0.00 0.00 0.00 0.00 0.00 0.00 0.00 0.00 0.00 0.00 0.00 0.00 0.00 0.00 0.00 0.00 0.00 0.00 0.00 0.00 0.00 0.00 0.00 0.00
0.00 0.00 0.00 0.00 0.00 0.00 0.00 0.00 0.00 0.00 0.00 0.00 0.00 0.00 0.00 0.00 0.00 0.00 0.00 0.00 0.00 0.00 0.00 0.00 0.00 0.00 0.00 0.00 0.00 0.00 0.00 0.00 0.00 0.00 0.00 0.00 0.00 0.00 0.00 0.00 0.00 0.00 0.00 0.00 0.00
0.00 0.00 0.00 0.00 0.00 0.00 0.00 0.00 0.00 0.00 0.00 0.00 0.00 0.00 0.00 0.00 0.00 0.00 0.00 0.00 0.00 0.00 0.00 0.00 0.00 0.00 0.00 0.00 0.00 0.00 0.00 0.00 0.00 0.00 0.00 0.00 0.00 0.00 0.00 0.00 0.00 0.00 0.00 0.00 0.00
0.00 0.00 0.00 0.00 0.00 0.00 0.00 0.00 0.00 0.00 0.00 0.00 0.00 0.00 0.00 0.00 0.00 0.00 0.00 0.00 0.00 0.00 0.00 0.00 0.00 0.00 0.00 0.00 0.00 0.00 0.00 0.00 0.00 0.00 0.00 0.00 0.00 0.00 0.00 0.00 0.00 0.00 0.00 0.00 0.00
0.00 0.00 0.00 0.00 0.00 0.00 0.00 0.00 0.00 0.00 0.00 0.00 0.00 0.00 0.00 0.00 0.00 0.00 0.00 0.00 0.00 0.00 0.00 0.00 0.00 0.00 0.00 0.00 0.00 0.00 0.00 0.00 0.00 0.00 0.00 0.00 0.00 0.00 0.00 0.00 0.00 0.00 0.00 0.00 0.00
0.00 0.00 0.00 0.00 0.00 0.00 0.00 0.00 0.00 0.00 0.00 0.00 0.00 0.00 0.00 0.00 0.00 0.00 0.00 0.00 0.00 0.00 0.00 0.00 0.00 0.00 0.00 0.00 0.00 0.00 0.00 0.00 0.00 0.00 0.00 0.00 0.00 0.00 0.00 0.00 0.00 0.00 0.00 0.00 0.00
0.00 0.00 0.00 0.00 0.00 0.00 0.00 0.00 0.00 0.00 0.00 0.00 0.00 0.00 0.00 0.00 0.00 0.00 0.00 0.00 0.00 0.00 0.00 0.00 0.00 0.00 0.00 0.00 0.00 0.00 0.00 0.00 0.00 0.00 0.00 0.00 0.00 0.00 0.00 0.00 0.00 0.00 0.00 0.00 0.00
0.00 0.00 0.00 0.00 0.00 0.00 0.00 0.00 0.00 0.00 0.00 0.00 0.00 0.00 0.00 0.00 0.00 0.00 0.00 0.00 0.00 0.00 0.00 0.00 0.00 0.00 0.00 0.00 0.00 0.00 0.00 0.00 0.00 0.00 0.00 0.00 0.00 0.00 0.00 0.00 0.00 0.00 0.00 0.00 0.00
0.00 0.00 0.00 0.00 0.00 0.00 0.00 0.00 0.00 0.00 0.00 0.00 0.00 0.00 0.00 0.00 0.00 0.00 0.00 0.00 0.00 0.00 0.00 0.00 0.00 0.00 0.00 0.00 0.00 0.00 0.00 0.00 0.00 0.00 0.00 0.00 0.00 0.00 0.00 0.00 0.00 0.00 0.00 0.00 0.00
0.00 0.00 0.00 0.00 0.00 0.00 0.00 0.00 0.00 0.00 0.00 0.00 0.00 0.00 0.00 0.00 0.00 0.00 0.00 0.00 0.00 0.00 0.00 0.00 0.00 0.00 0.00 0.00 0.00 0.00 0.00 0.00 0.00 0.00 0.00 0.00 0.00 0.00 0.00 0.00 0.00 0.00 0.00 0.00 0.00
0.00 0.00 0.00 0.00 0.00 0.00 0.00 0.00 0.00 0.00 0.00 0.00 0.00 0.00 0.00 0.00 0.00 0.00 0.00 0.00 0.00 0.00 0.00 0.00 0.00 0.00 0.00 0.00 0.00 0.00 0.00 0.00 0.00 0.00 0.00 0.00 0.00 0.00 0.00 0.00 0.00 0.00 0.00 0.00 0.00
0.00 0.00 0.00 0.00 0.00 0.00 0.00 0.00 0.00 0.00 0.00 0.00 0.00 0.00 0.00 0.00 0.00 0.00 0.00 0.00 0.00 0.00 0.00 0.00 0.00 0.00 0.00 0.00 0.00 0.00 0.00 0.00 0.00 0.00 0.00 0.00 0.00 0.00 0.00 0.00 0.00 0.00 0.00 0.00 0.00
0.00 0.00 0.00 0.00 0.00 0.00 0.00 0.00 0.00 0.00 0.00 0.00 0.00 0.00 0.00 0.00 0.00 0.00 0.00 0.00 0.00 0.00 0.00 0.00 0.00 0.00 0.00 0.00 0.00 0.00 0.00 0.00 0.00 0.00 0.00 0.00 0.00 0.00 0.00 0.00 0.00 0.00 0.00 0.00 0.00
0.00 0.00 0.00 0.00 0.00 0.00 0.00 0.00 0.00 0.00 0.00 0.00 0.00 0.00 0.00 0.00 0.00 0.00 0.00 0.00 0.00 0.00 0.00 0.00 0.00 0.00 0.00 0.00 0.00 0.00 0.00 0.00 0.00 0.00 0.00 0.00 0.00 0.00 0.00 0.00 0.00 0.00 0.00 0.00 0.00
0.00 0.00 0.00 0.00 0.00 0.00 0.00 0.00 0.00 0.00 0.00 0.00 0.00 0.00 0.00 0.00 0.00 0.00 0.00 0.00 0.00 0.00 0.00 0.00 0.00 0.00 0.00 0.00 0.00 0.00 0.00 0.00 0.00 0.00 0.00 0.00 0.00 0.00 0.00 0.00 0.00 0.00 0.00 0.00 0.00
0.00 0.00 0.00 0.00 0.00 0.00 0.00 0.00 0.00 0.00 0.00 0.00 0.00 0.00 0.00 0.00 0.00 0.00 0.00 0.00 0.00 0.00 0.00 0.00 0.00 0.00 0.00 0.00 0.00 0.00 0.00 0.00 0.00 0.00 0.00 0.00 0.00 0.00 0.00 0.00 0.00 0.00 0.00 0.00 0.00
0.00 0.00 0.00 0.00 0.00 0.00 0.00 0.00 0.00 0.00 0.00 0.00 0.00 0.00 0.00 0.00 0.00 0.00 0.00 0.00 0.00 0.00 0.00 0.00 0.00 0.00 0.00 0.00 0.00 0.00 0.00 0.00 0.00 0.00 0.00 0.00 0.00 0.00 0.00 0.00 0.00 0.00 0.00 0.00 0.00
0.00 0.00 0.00 0.00 0.00 0.00 0.00 0.00 0.00 0.00 0.00 0.00 0.00 0.00 0.00 0.00 0.00 0.00 0.00 0.00 0.00 0.00 0.00 0.00 0.00 0.00 0.00 0.00 0.00 0.00 0.00 0.00 0.00 0.00 0.00 0.00 0.00 0.00 0.00 0.00 0.00 0.00 0.00 0.00 0.00
0.00 0.00 0.00 0.00 0.00 0.00 0.00 0.00 0.00 0.00 0.00 0.00 0.00 0.00 0.00 0.00 0.00 0.00 0.00 0.00 0.00 0.00 0.00 0.00 0.00 0.00 0.00 0.00 0.00 0.00 0.00 0.00 0.00 0.00 0.00 0.00 0.00 0.00 0.00 0.00 0.00 0.00 0.00 0.00 0.00
0.00 0.00 0.00 0.00 0.00 0.00 0.00 0.00 0.00 0.00 0.00 0.00 0.00 0.00 0.00 0.00 0.00 0.00 0.00 0.00 0.00 0.00 0.00 0.00 0.00 0.00 0.00 0.00 0.00 0.00 0.00 0.00 0.00 0.00 0.00 0.00 0.00 0.00 0.00 0.00 0.00 0.00 0.00 0.00 0.00
0.00 0.00 0.00 0.00 0.00 0.00 0.00 0.00 0.00 0.00 0.00 0.00 0.00 0.00 0.00 0.00 0.00 0.00 0.00 0.00 0.00 0.00 0.00 0.00 0.00 0.00 0.00 0.00 0.00 0.00 0.00 0.00 0.00 0.00 0.00 0.00 0.00 0.00 0.00 0.00 0.00 0.00 0.00 0.00 0.00
0.00 0.00 0.00 0.00 0.00 0.00 0.00 0.00 0.00 0.00 0.00 0.00 0.00 0.00 0.00 0.00 0.00 0.00 0.00 0.00 0.00 0.00 0.00 0.00 0.00 0.00 0.00 0.00 0.00 0.00 0.00 0.00 0.00 0.00 0.00 0.00 0.00 0.00 0.00 0.00 0.00 0.00 0.00 0.00 0.00
MSLP
1016.35 1016.14 1015.89 1015.65 1015.69 1015.54 1015.15 1014.80 1014.55 1014.26 1014.02 1013.85 1013.69 1013.46 1013.24 1013.01 1012.60 1012.25 1010.16 1008.96 1009.38 1010.19 1010.24 1009.90 1009.97 1009.89 1009.71 1008.91 1008.50 1007.73 1005.00 1004.15 1004.31 1004.41 1005.43 1006.28 1006.53 1007.34 1007.67 1008.06 1008.46 1009.26 1009.07 1010.36 1012.20
1016.42 1016.12 1015.89 1015.64 1015.46 1015.40 1015.22 1014.79 1014.47 1014.25 1014.09 1013.87 1013.41 1013.25 1013.08 1012.95 1011.55 1009.74 1008.71 1009.03 1009.51 1009.98 1009.53 1009.45 1009.36 1009.45 1008.43 1007.93 1007.45 1006.15 1004.35 1003.94 1004.17 1004.58 1005.00 1005.92 1006.30 1007.08 1007.38 1007.89 1008.64 1009.39 1010.10 1011.40 1012.34
1016.47 1016.06 1015.82 1015.60 1015.32 1015.21 1015.15 1014.80 1014.39 1014.06 1013.97 1013.95 1013.58 1013.13 1012.99 1012.62 1010.43 1007.82 1008.46 1009.16 1009.63 1009.82 1009.20 1009.14 1009.11 1008.48 1007.51 1007.25 1006.80 1005.89 1004.31 1004.37 1004.39 1004.62 1004.92 1005.57 1006.15 1006.76 1006.87 1007.30 1007.88 1008.90 1010.20 1011.26 1011.91
1016.56 1016.12 1015.70 1015.51 1015.24 1015.00 1014.85 1014.83 1014.35 1013.86 1013.69 1013.68 1013.54 1013.19 1012.94 1011.87 1008.86 1008.22 1008.99 1009.38 1009.65 1008.90 1009.00 1008.86 1008.53 1007.58 1006.44 1005.91 1006.04 1004.94 1004.57 1004.54 1004.26 1004.88 1004.94 1005.37 1005.77 1006.38 1006.64 1007.11 1007.59 1008.63 1009.97 1010.91 1011.45
1016.66 1016.21 1015.78 1015.44 1015.06 1014.82 1014.66 1014.52 1014.43 1013.79 1013.41 1013.54 1013.26 1013.09 1012.78 1010.18 1008.01 1008.87 1009.37 1009.67 1009.45 1008.79 1008.27 1008.09 1007.46 1006.84 1006.02 1005.69 1005.44 1004.89 1004.48 1004.31 1004.36 1004.80 1004.88 1005.38 1005.72 1006.02 1006.60 1007.33 1007.94 1008.75 1009.83 1010.50 1010.97
1016.68 1016.28 1015.77 1015.41 1015.13 1014.60 1014.32 1014.29 1014.15 1013.75 1013.25 1013.19 1013.10 1013.00 1011.36 1008.51 1007.90 1008.54 1008.80 1009.44 1008.59 1008.33 1007.92 1007.71 1007.09 1006.99 1006.16 1005.52 1005.18 1005.05 1004.62 1004.37 1004.43 1004.87 1005.24 1005.28 1005.68 1006.30 1006.58 1007.43 1008.13 1008.95 1009.57 1010.10 1010.50
1016.61 1016.27 1015.78 1015.27 1015.01 1014.68 1014.15 1013.90 1013.78 1013.57 1013.09 1012.86 1012.93 1012.23 1009.92 1008.22 1007.84 1008.18 1008.63 1008.55 1008.41 1008.03 1007.49 1007.37 1007.17 1006.73 1006.05 1005.14 1005.35 1004.78 1004.17 1004.24 1004.36 1004.66 1004.96 1005.11 1005.44 1005.68 1006.27 1007.17 1007.89 1008.69 1009.34 1009.83 1010.27
1016.68 1016.27 1015.81 1015.25 1014.78 1014.52 1014.11 1013.48 1013.31 1013.19 1012.90 1012.65 1012.55 1011.28 1008.19 1008.12 1007.80 1008.17 1008.14 1008.23 1008.38 1008.14 1007.87 1007.51 1007.07 1006.49 1005.90 1005.47 1004.81 1003.99 1003.69 1002.97 1004.21 1004.48 1004.96 1005.02 1004.01 1004.76 1005.91 1006.66 1007.31 1008.11 1008.80 1009.53 1010.00
1016.50 1016.22 1015.85 1015.34 1014.77 1014.31 1013.86 1013.30 1012.76 1012.72 1012.63 1012.39 1011.78 1010.03 1007.55 1008.63 1007.83 1007.67 1007.66 1007.39 1007.75 1007.87 1007.77 1007.70 1006.94 1005.84 1005.13 1004.29 1003.69 1003.12 1002.72 1003.29 1003.92 1004.29 1004.50 1004.69 1003.92 1004.62 1005.39 1005.98 1006.52 1007.41 1008.23 1008.98 1009.60
1016.18 1015.77 1015.53 1015.15 1014.64 1014.15 1013.62 1013.17 1012.57 1012.38 1012.23 1011.52 1010.67 1009.41 1007.69 1006.79 1007.01 1007.23 1007.61 1007.36 1007.20 1007.17 1007.19 1006.96 1006.20 1004.94 1003.92 1003.26 1002.88 1002.55 1002.56 1003.22 1003.33 1003.88 1004.12 1004.07 1004.00 1004.38 1004.90 1005.16 1005.71 1006.51 1007.46 1008.28 1008.86
1016.31 1015.72 1015.20 1014.89 1014.52 1014.17 1012.83 1012.20 1011.99 1010.97 1009.87 1007.75 1007.31 1006.80 1006.42 1006.62 1006.98 1007.02 1007.28 1007.09 1006.64 1006.49 1005.68 1005.94 1004.99 1003.60 1003.62 1003.59 1003.46 1003.14 1002.86 1002.82 1003.11 1003.81 1004.24 1003.50 1003.16 1003.32 1004.04 1004.53 1004.80 1005.57 1006.59 1007.38 1007.97
1016.16 1015.69 1015.19 1014.68 1014.28 1013.98 1013.34 1010.11 1009.20 1009.12 1007.45 1006.85 1006.84 1006.73 1006.53 1006.44 1005.94 1006.31 1006.91 1006.53 1006.16 1005.37 1005.26 1005.25 1004.02 1003.84 1003.90 1003.60 1003.14 1002.79 1002.57 1002.63 1003.45 1004.19 1004.13 1003.13 1002.87 1002.70 1003.12 1003.72 1004.04 1004.71 1005.71 1006.48 1007.29
1016.00 1015.57 1014.99 1014.46 1013.88 1013.34 1011.01 1009.28 1008.97 1008.74 1006.96 1006.14 1005.90 1005.44 1005.46 1006.04 1005.01 1005.18 1006.01 1005.46 1005.10 1004.75 1004.49 1003.94 1003.65 1003.98 1003.70 1002.94 1002.47 1002.17 1002.27 1002.39 1003.04 1003.70 1003.81 1003.15 1001.35 1001.61 1002.49 1003.04 1003.61 1004.07 1004.89 1005.68 1006.39
1015.87 1015.41 1014.87 1014.20 1013.90 1011.36 1009.69 1009.10 1009.04 1008.71 1006.31 1005.09 1005.07 1004.55 1005.16 1004.94 1004.54 1004.46 1004.98 1004.70 1004.52 1004.00 1003.80 1003.64 1003.31 1003.58 1003.25 1002.70 1002.65 1001.45 1002.73 1002.65 1002.78 1003.25 1002.38 1003.28 1001.38 1001.01 1001.28 1002.32 1002.89 1003.36 1004.09 1004.84 1005.67
1015.66 1015.22 1014.85 1014.72 1012.92 1010.42 1009.35 1009.18 1008.88 1008.32 1004.82 1004.27 1004.41 1004.84 1004.14 1004.06 1003.54 1004.38 1004.47 1004.47 1003.70 1003.69 1004.09 1002.80 1003.05 1003.08 1002.94 1002.47 1002.70 1002.46 1002.78 1002.53 1002.95 1003.25 1002.74 1001.94 1001.92 1000.58 1001.52 1001.59 1002.07 1002.52 1003.09 1003.99 1004.97
1015.23 1014.93 1014.67 1013.34 1012.57 1010.03 1009.66 1009.23 1008.57 1006.66 1003.69 1003.39 1003.63 1003.84 1003.80 1003.56 1003.32 1003.92 1004.23 1004.39 1003.79 1003.58 1003.65 1002.93 1003.36 1003.32 1002.55 1002.72 1002.71 1002.91 1002.51 1002.29 1002.46 1001.80 1001.19 1001.64 1001.53 999.90 1000.66 1001.17 1001.14 1001.76 1002.51 1003.44 1004.29
1014.80 1014.43 1014.48 1012.43 1009.89 1010.00 1009.61 1008.57 1006.50 1004.17 1003.50 1002.72 1002.46 1002.79 1002.51 1002.61 1002.71 1002.96 1003.24 1003.39 1003.08 1003.01 1002.52 1002.39 1002.35 1002.33 1002.72 1002.37 1002.37 1002.44 1001.42 1000.46 1000.21 1000.13 999.61 1001.00 1000.94 1000.16 1001.36 1001.43 1001.29 1001.35 1002.06 1003.04 1003.95
1014.04 1013.52 1012.68 1011.40 1010.63 1010.26 1009.13 1007.20 1004.88 1003.06 1002.38 1002.39 1002.09 1002.09 1001.87 1001.81 1002.13 1002.45 1002.55 1002.34 1002.52 1002.38 1001.72 1001.54 1001.17 1001.40 1001.60 1001.94 1001.37 1001.04 1000.97 1000.11 999.83 999.25 999.33 1000.53 1000.08 1001.29 1001.77 1001.42 1001.36 1001.53 1002.14 1002.92 1003.60
1013.12 1011.64 1010.98 1010.24 1010.65 1010.32 1007.98 1005.52 1003.31 1002.81 1002.56 1002.10 1002.10 1001.58 1001.44 1001.60 1001.95 1001.99 1002.09 1001.70 1001.79 1002.35 1002.10 1001.38 1001.26 1001.05 1001.69 1001.53 1001.75 1000.70 1001.09 1000.43 999.99 1000.04 1000.01 999.43 1000.65 1001.77 1001.99 1002.21 1001.87 1001.78 1002.19 1002.96 1003.65
1012.31 1010.12 1009.40 1009.94 1010.13 1009.24 1006.98 1004.53 1003.54 1003.60 1003.03 1002.46 1001.44 1001.08 1000.65 1001.08 1001.61 1001.41 1001.46 1001.20 1001.41 1001.69 1002.09 1001.52 1001.46 1001.10 1001.68 1001.78 1001.81 1001.29 1000.75 1000.26 999.96 999.50 999.24 999.26 1000.28 1001.75 1002.74 1003.23 1003.12 1003.14 1003.54 1003.93 1004.04
1011.75 1008.92 1009.56 1009.77 1009.61 1007.81 1005.28 1003.75 1003.64 1003.60 1003.53 1002.65 1001.78 1001.15 1000.71 1000.48 1000.77 1000.72 1000.73 1001.35 1001.51 1001.34 1001.72 1001.39 1001.53 1001.01 1001.21 1000.68 1000.08 1000.99 1000.55 1000.17 999.40 999.58 998.92 999.36 1001.20 1003.44 1004.16 1004.31 1004.26 1004.49 1004.68 1004.63 1004.66
1010.65 1008.04 1009.47 1009.56 1007.92 1006.18 1004.58 1003.90 1004.29 1003.41 1003.47 1002.86 1002.57 1001.79 1001.04 1000.76 1000.59 1000.41 1000.54 1000.80 1002.04 1001.88 1001.70 1001.50 1000.87 1000.48 1000.16 1000.42 1000.97 1000.34 999.46 999.30 998.85 999.49 999.80 1000.48 1002.29 1004.32 1005.14 1005.43 1005.54 1005.83 1006.11 1006.07 1005.83
1009.93 1008.46 1009.02 1008.66 1006.09 1005.22 1004.56 1004.20 1004.27 1003.59 1003.29 1002.85 1002.32 1002.09 1001.85 1001.08 1000.87 1000.69 1000.75 1001.80 1002.32 1002.12 1001.57 1001.61 1001.04 1000.13 1000.12 1000.54 1000.86 1000.15 999.78 999.25 999.08 999.33 999.73 1000.34 1002.27 1004.67 1005.72 1006.28 1006.65 1006.89 1007.20 1007.31 1007.28
1010.52 1007.93 1007.92 1007.59 1006.47 1004.95 1004.13 1004.01 1003.83 1003.98 1003.70 1003.42 1002.79 1002.52 1002.00 1001.49 1001.55 1001.03 1001.15 1002.14 1002.58 1002.41 1002.83 1002.38 1000.46 999.84 998.92 998.99 998.75 999.42 999.74 999.79 999.30 998.85 999.19 1000.33 1002.63 1004.57 1005.81 1006.61 1007.39 1007.96 1008.36 1008.58 1008.75
1010.57 1008.58 1008.48 1006.69 1005.98 1005.27 1004.86 1004.16 1003.81 1003.63 1003.91 1003.78 1002.92 1002.72 1001.91 1001.51 1001.28 1001.21 1001.08 1002.01 1002.63 1003.08 1002.77 1002.07 1000.91 1000.38 1000.07 1000.03 999.91 999.46 999.14 999.77 999.75 999.63 999.89 1000.23 1001.70 1004.43 1005.99 1006.96 1007.92 1008.71 1009.31 1009.71 1009.99
1011.19 1010.16 1008.98 1007.58 1007.02 1006.05 1005.34 1004.76 1004.25 1003.97 1004.09 1003.38 1003.44 1002.80 1002.42 1002.06 1001.45 1001.03 1001.03 1001.32 1001.50 1002.61 1002.29 1001.83 1001.26 1001.14 1000.38 1000.34 1000.36 999.99 999.89 999.72 1000.05 1000.47 1000.90 1001.68 1003.10 1004.99 1006.47 1007.58 1008.39 1009.27 1009.98 1010.55 1011.05
1012.79 1011.84 1010.56 1008.26 1006.83 1006.11 1005.03 1004.88 1004.71 1004.95 1004.52 1004.45 1004.24 1003.85 1003.39 1003.04 1003.46 1003.01 1002.52 1002.23 1001.99 1001.91 1001.86 1001.72 1001.24 1001.36 1000.23 1000.69 1000.86 1000.54 1000.11 1000.48 1000.64 1001.67 1001.63 1002.18 1002.81 1005.66 1006.83 1007.85 1008.72 1009.56 1010.36 1011.04 1011.55
Thickness
5771 5773 5776 5777 5777 5779 5782 5786 5789 5792 5795 5796 5798 5800 5802 5804 5808 5813 5818 5834 5832 5825 5823 5823 5818 5815 5816 5812 5819 5823 5819 5809 5813 5815 5813 5828 5820 5828 5835 5822 5825 5822 5825 5823 5816
5773 5776 5778 5780 5782 5783 5785 5788 5791 5794 5796 5798 5802 5804 5805 5806 5818 5825 5841 5839 5835 5830 5828 5818 5812 5815 5814 5817 5821 5822 5820 5822 5838 5835 5826 5829 5829 5825 5822 5818 5815 5815 5823 5818 5814
5774 5778 5781 5783 5785 5787 5787 5790 5794 5797 5799 5800 5803 5807 5808 5810 5821 5838 5844 5839 5835 5834 5836 5831 5826 5825 5819 5824 5822 5826 5821 5835 5838 5842 5843 5833 5830 5836 5826 5815 5824 5815 5815 5816 5814
5775 5779 5783 5784 5787 5790 5792 5792 5796 5800 5802 5803 5805 5808 5811 5819 5810 5845 5843 5839 5837 5842 5837 5829 5826 5822 5825 5822 5833 5825 5840 5839 5844 5844 5841 5831 5841 5830 5833 5829 5841 5834 5826 5821 5816
5774 5778 5782 5785 5789 5792 5794 5796 5798 5802 5805 5805 5809 5811 5816 5824 5833 5845 5842 5839 5840 5843 5836 5831 5829 5830 5822 5831 5835 5830 5838 5846 5849 5846 5846 5845 5833 5833 5832 5840 5842 5836 5828 5822 5821
5774 5778 5783 5786 5789 5794 5797 5799 5801 5805 5808 5808 5810 5812 5823 5821 5852 5848 5847 5842 5846 5844 5840 5840 5837 5839 5833 5835 5832 5838 5841 5843 5847 5842 5842 5835 5834 5834 5837 5842 5834 5830 5826 5826 5826
5775 5778 5782 5787 5790 5793 5798 5803 5805 5807 5811 5812 5813 5819 5825 5831 5854 5852 5849 5847 5851 5849 5841 5850 5850 5840 5843 5835 5847 5845 5833 5842 5843 5843 5837 5846 5823 5825 5842 5840 5831 5828 5828 5828 5828
5773 5777 5782 5787 5792 5795 5799 5806 5809 5810 5813 5815 5816 5825 5831 5851 5855 5851 5854 5848 5853 5854 5850 5856 5857 5847 5842 5850 5845 5839 5843 5830 5839 5843 5841 5839 5819 5841 5848 5839 5831 5832 5830 5827 5829
5773 5776 5780 5786 5792 5796 5801 5807 5812 5814 5815 5817 5822 5827 5831 5849 5843 5854 5857 5845 5849 5850 5852 5852 5851 5844 5850 5836 5829 5843 5822 5821 5825 5847 5840 5835 5825 5844 5852 5844 5837 5835 5834 5830 5829
5774 5778 5781 5786 5791 5797 5802 5807 5812 5815 5817 5822 5826 5819 5836 5838 5849 5854 5857 5854 5843 5842 5836 5836 5837 5836 5845 5838 5805 5823 5827 5827 5824 5839 5841 5833 5831 5843 5849 5849 5844 5842 5839 5835 5833
5769 5776 5782 5786 5790 5795 5806 5815 5815 5815 5824 5836 5837 5835 5841 5852 5856 5846 5851 5845 5846 5838 5822 5831 5823 5824 5834 5839 5838 5837 5833 5828 5838 5846 5832 5837 5841 5848 5852 5851 5849 5847 5843 5840 5841
5767 5773 5779 5785 5790 5794 5801 5821 5826 5828 5823 5841 5837 5835 5844 5849 5832 5840 5852 5829 5826 5818 5832 5821 5818 5839 5843 5842 5839 5838 5831 5827 5835 5836 5833 5840 5838 5854 5857 5853 5857 5853 5848 5846 5845
5765 5770 5777 5783 5790 5797 5816 5824 5833 5834 5820 5830 5839 5838 5840 5842 5835 5836 5842 5839 5827 5821 5825 5818 5830 5842 5836 5839 5835 5840 5831 5833 5823 5834 5839 5837 5849 5854 5858 5861 5861 5863 5860 5855 5850
5763 5768 5774 5782 5790 5809 5815 5827 5829 5831 5808 5821 5825 5838 5841 5845 5828 5856 5853 5841 5829 5821 5830 5826 5845 5833 5831 5832 5839 5839 5844 5839 5832 5819 5817 5835 5815 5851 5861 5852 5856 5860 5859 5857 5854
5761 5767 5771 5774 5791 5806 5817 5822 5827 5821 5780 5825 5825 5853 5849 5833 5842 5834 5857 5841 5824 5824 5823 5827 5828 5827 5823 5834 5843 5830 5845 5839 5824 5809 5822 5833 5815 5850 5855 5847 5853 5861 5864 5862 5860
5761 5766 5770 5781 5787 5808 5813 5818 5816 5790 5777 5814 5832 5824 5822 5832 5834 5837 5834 5845 5846 5827 5827 5830 5844 5836 5839 5844 5844 5845 5839 5840 5836 5836 5812 5828 5825 5848 5850 5852 5862 5866 5866 5864 5862
5761 5766 5768 5783 5803 5805 5809 5808 5787 5781 5821 5813 5820 5828 5829 5822 5826 5829 5821 5816 5811 5796 5804 5826 5828 5846 5845 5830 5844 5837 5836 5820 5815 5818 5821 5843 5831 5849 5854 5861 5864 5864 5865 5866 5864
5763 5770 5779 5788 5795 5799 5804 5795 5768 5808 5813 5831 5829 5829 5817 5830 5826 5825 5819 5813 5829 5824 5816 5804 5802 5834 5852 5834 5833 5843 5839 5822 5789 5813 5830 5845 5831 5835 5859 5872 5874 5873 5871 5869 5865
5766 5781 5786 5795 5791 5794 5797 5779 5795 5807 5820 5818 5820 5813 5815 5825 5821 5820 5816 5818 5828 5827 5801 5805 5805 5845 5840 5848 5842 5840 5817 5854 5831 5838 5822 5849 5846 5852 5861 5858 5867 5870 5870 5865 5865
5768 5785 5791 5790 5791 5794 5789 5783 5801 5812 5817 5819 5805 5822 5810 5815 5809 5815 5815 5833 5826 5837 5838 5823 5795 5834 5833 5843 5841 5836 5852 5822 5833 5797 5799 5837 5836 5822 5835 5838 5851 5855 5855 5857 5863
5766 5782 5781 5785 5787 5787 5781 5796 5803 5815 5813 5808 5810 5813 5820 5818 5820 5817 5820 5827 5834 5835 5840 5835 5818 5819 5834 5831 5835 5826 5825 5835 5846 5836 5823 5820 5820 5836 5829 5837 5842 5845 5849 5854 5858
5766 5773 5775 5778 5772 5787 5785 5798 5789 5806 5812 5811 5812 5814 5816 5821 5816 5820 5818 5828 5834 5836 5818 5835 5829 5808 5825 5845 5845 5845 5844 5847 5827 5813 5834 5831 5824 5839 5835 5838 5841 5839 5840 5846 5852
5761 5766 5770 5772 5765 5772 5787 5787 5791 5794 5799 5803 5804 5812 5817 5814 5804 5820 5825 5830 5829 5828 5826 5832 5819 5802 5809 5827 5835 5831 5843 5852 5853 5847 5823 5821 5823 5834 5832 5831 5834 5833 5834 5837 5840
5745 5752 5757 5764 5771 5773 5776 5775 5777 5792 5790 5796 5799 5808 5806 5805 5813 5810 5814 5819 5824 5827 5809 5821 5830 5820 5818 5828 5850 5826 5832 5839 5843 5833 5834 5830 5814 5817 5819 5821 5823 5824 5826 5826 5827
5736 5741 5742 5746 5755 5763 5766 5772 5770 5770 5784 5788 5789 5793 5801 5794 5802 5802 5818 5813 5817 5802 5818 5824 5807 5822 5827 5830 5830 5835 5839 5832 5827 5838 5823 5839 5830 5816 5815 5815 5815 5815 5815 5812 5811
5719 5723 5735 5741 5741 5746 5738 5753 5759 5767 5769 5774 5772 5787 5796 5788 5803 5801 5812 5813 5811 5812 5814 5824 5802 5809 5808 5822 5821 5817 5830 5835 5832 5827 5827 5827 5811 5821 5816 5812 5807 5803 5800 5797 5796
5703 5709 5713 5715 5738 5738 5749 5751 5752 5755 5765 5768 5768 5770 5774 5783 5788 5797 5806 5809 5811 5808 5806 5808 5807 5795 5794 5808 5805 5794 5818 5819 5824 5819 5824 5805 5822 5810 5801 5798 5796 5794 5792 5788 5787